Flag for U.S.A. Weather past 2 weeks in Plano, Texas, U.S.A.

Now
64 °F

Clear.


Feels Like: 64 °F
Forecast: 70 / 86 °F
Wind: No wind

Location: McKinney Municipal Airport

Current Time: Sep 30, 2014 at 7:11:32 AM

Latest Report: Sep 30, 2014 at 5:53 AM


Visibility: 10 mi

Pressure: 29.90 "Hg

Humidity: 90%

Dew point: 61 °F

Location of PlanoLocation

Historic Weather in Plano — Graph

°F

Plano temperature yesterday

Maximum temperature yesterday: 87 °F (at 1:53 PM)
Minimum temperature yesterday: 61 °F (at 5:53 AM)
Average temperature yesterday: 74 °F

Past Weeks' High & Low Weather Summary

 TemperatureHumidityPressure
High93 °F (Sep 17, 4:53 PM)97% (Sep 19, 8:59 AM)30.22 "Hg (Sep 19, 8:59 AM)
Low52 °F (Sep 24, 7:53 AM)17% (Sep 24, 4:53 PM)29.83 "Hg (Sep 17, 4:53 PM)
Average75 °F64%30.04 "Hg
* Reported Sep 15 5:53 AM — Sep 30 5:53 AM, Plano, Weather by CustomWeather, © 2014

Note: Actual official high and low records may vary slightly from our data, if they occured in-between our weather recording intervals... More about our weather records

Advertising

Plano weather history for previous 24 hours

 ConditionsComfort  
Time TempWeatherWind HumidityBarometerVisibility
5:53 AM
Sep 30
64 °FClear.No wind90%29.90 "Hg10 mi
4:53 AM65 °FClear.No wind81%29.89 "Hg10 mi
3:53 AM64 °FClear.No wind87%29.90 "Hg10 mi
2:53 AM66 °FClear.3 mph84%29.90 "Hg10 mi
1:53 AM68 °FClear.No wind70%29.90 "Hg10 mi
12:53 AM68 °FClear.No wind73%29.91 "Hg10 mi
11:53 PM
Sep 29
71 °FClear.3 mph73%29.91 "Hg10 mi
10:53 PM72 °FClear.3 mph71%29.91 "Hg10 mi
9:53 PM75 °FClear.5 mph62%29.91 "Hg10 mi
8:53 PM76 °FClear.3 mph62%29.91 "Hg10 mi
7:53 PM78 °FSunny.3 mph58%29.91 "Hg10 mi
6:53 PM82 °FScattered clouds.9 mph51%29.91 "Hg10 mi
5:53 PM84 °FOvercast.12 mph48%29.91 "Hg10 mi
4:53 PM84 °FOvercast.8 mph46%29.91 "Hg10 mi
3:53 PM84 °FOvercast.10 mph46%29.93 "Hg10 mi
2:53 PM85 °FMostly cloudy.10 mph43%29.93 "Hg10 mi
1:53 PM87 °FBroken clouds.9 mph42%29.96 "Hg10 mi
12:53 PM82 °FBroken clouds.7 mph49%29.99 "Hg10 mi
11:53 AM82 °FScattered clouds.N/A53%30.02 "Hg10 mi
10:53 AM80 °FSunny.12 mph56%30.03 "Hg10 mi
9:53 AM78 °FSunny.7 mph58%30.03 "Hg10 mi
8:53 AM69 °FSunny.5 mph73%30.03 "Hg10 mi
7:53 AM62 °FClear.No wind86%30.03 "Hg10 mi
Weather by CustomWeather, © 2014

See weather overviewHow to use our weather pages